When you browse on this site, cookies collect data to enhance your experience and personalize the content and advertising you see.
Visit our Privacy Policy to learn more. By continuing to use the site, you agree to this use of cookies and data.
  • In Belgium
  • List of Countries
  • For 7 days
  • Water Temperature
  • Satellite Maps
  • Weather Map
  • Weather Widgets
  • user-avatar
    Login

    Hourly Weather Kula

    Today, 18 December, Tuesday

    Time Temperature Precipitation Wind Pressure Humidity
    00:00 +8°C° 0 mm 1 mps 703 mmHg 90%
    01:00 +8°C° 0 mm 1 mps 703 mmHg 91%
    02:00 +8°C° 0 mm 1 mps 703 mmHg 90%
    03:00 +8°C° 0 mm 1 mps 703 mmHg 90%
    04:00 +7°C° 0 mm 2 mps 702 mmHg 90%
    05:00 +7°C° 0 mm 2 mps 702 mmHg 90%
    06:00 +7°C° 0.2 mm 2 mps 702 mmHg 89%
    07:00 +8°C° 0.2 mm 1 mps 702 mmHg 89%
    08:00 +8°C° 0 mm 1 mps 702 mmHg 88%
    09:00 +8°C° 1 mm 1 mps 702 mmHg 86%
    10:00 +8°C° 1 mm 2 mps 701 mmHg 84%
    11:00 +8°C° 1 mm 2 mps 701 mmHg 82%
    12:00 +8°C° 1.7 mm 2 mps 701 mmHg 84%
    13:00 +8°C° 1.7 mm 2 mps 700 mmHg 86%
    14:00 +9°C° 0 mm 1 mps 700 mmHg 87%
    15:00 +8°C° 1.8 mm 1 mps 700 mmHg 89%
    16:00 +8°C° 1.8 mm 1 mps 699 mmHg 90%
    17:00 +8°C° 1.8 mm 1 mps 699 mmHg 92%
    18:00 +7°C° 0.6 mm 1 mps 699 mmHg 92%
    19:00 +7°C° 0.6 mm 1 mps 699 mmHg 92%
    20:00 +7°C° 0.6 mm 1 mps 699 mmHg 92%
    21:00 +7°C° 0.3 mm 1 mps 699 mmHg 92%
    22:00 +7°C° 0.3 mm 1 mps 699 mmHg 92%
    23:00 +6°C° 0.3 mm 0 mps 699 mmHg 92%

    Tomorrow, 19 December, Wednesday

    Time Temperature Precipitation Wind Pressure Humidity
    00:00 +5°C° 0.1 mm 0 mps 700 mmHg 93%
    01:00 +5°C° 0.1 mm 0 mps 700 mmHg 93%
    02:00 +5°C° 0.1 mm 0 mps 700 mmHg 93%
    03:00 +6°C° 0.1 mm 1 mps 700 mmHg 93%
    04:00 +6°C° 0.1 mm 1 mps 700 mmHg 93%
    05:00 +6°C° 0.1 mm 1 mps 700 mmHg 93%
    06:00 +5°C° 0.2 mm 2 mps 700 mmHg 93%
    07:00 +5°C° 0.2 mm 2 mps 701 mmHg 93%
    08:00 +5°C° 0.2 mm 2 mps 701 mmHg 92%
    09:00 +4°C° 0.1 mm 3 mps 701 mmHg 88%
    10:00 +5°C° 0.1 mm 3 mps 702 mmHg 84%
    11:00 +5°C° 0.1 mm 4 mps 702 mmHg 80%
    12:00 +5°C° 0.1 mm 4 mps 703 mmHg 77%
    13:00 +6°C° 0.1 mm 4 mps 703 mmHg 75%
    14:00 +6°C° 0.1 mm 5 mps 703 mmHg 72%
    15:00 +5°C° 0 mm 5 mps 703 mmHg 74%
    16:00 +4°C° 0 mm 4 mps 704 mmHg 75%
    17:00 +4°C° 0 mm 4 mps 704 mmHg 76%
    18:00 +3°C° 0 mm 4 mps 704 mmHg 78%
    19:00 +2°C° 0 mm 3 mps 705 mmHg 80%
    20:00 +2°C° 0 mm 3 mps 705 mmHg 82%
    21:00 +1°C° 0 mm 3 mps 705 mmHg 83%
    22:00 +1°C° 0 mm 3 mps 706 mmHg 84%
    23:00 +2°C° 0 mm 2 mps 706 mmHg 85%

    Day after tomorrow, 20 December, Thursday

    Time Temperature Precipitation Wind Pressure Humidity
    00:00 +1°C° 0 mm 2 mps 706 mmHg 85%
    01:00 +1°C° 0 mm 2 mps 706 mmHg 86%
    02:00 +1°C° 0 mm 2 mps 707 mmHg 86%
    03:00 +1°C° 0 mm 2 mps 707 mmHg 86%
    04:00 +1°C° 0 mm 2 mps 707 mmHg 86%
    05:00 -1°C° 0 mm 2 mps 707 mmHg 86%
    06:00 +1°C° 0 mm 2 mps 707 mmHg 85%
    07:00 +1°C° 0 mm 2 mps 707 mmHg 84%
    08:00 +1°C° 0 mm 2 mps 708 mmHg 83%
    09:00 +2°C° 0 mm 2 mps 708 mmHg 77%
    10:00 +4°C° 0 mm 2 mps 708 mmHg 70%
    11:00 +5°C° 0 mm 2 mps 709 mmHg 64%
    12:00 +6°C° 0 mm 2 mps 708 mmHg 62%
    13:00 +7°C° 0 mm 3 mps 708 mmHg 60%
    14:00 +8°C° 0 mm 3 mps 708 mmHg 58%
    15:00 +7°C° 0 mm 2 mps 708 mmHg 63%
    16:00 +6°C° 0 mm 2 mps 708 mmHg 67%
    17:00 +5°C° 0 mm 2 mps 708 mmHg 72%
    18:00 +4°C° 0 mm 2 mps 708 mmHg 74%
    19:00 +4°C° 0 mm 2 mps 709 mmHg 77%
    20:00 +4°C° 0 mm 1 mps 709 mmHg 79%
    21:00 +4°C° 0 mm 1 mps 709 mmHg 80%
    22:00 +4°C° 0 mm 1 mps 709 mmHg 80%
    23:00 +4°C° 0 mm 1 mps 709 mmHg 81%

    21 December, Friday

    Time Temperature Precipitation Wind Pressure Humidity
    00:00 +3°C° 0 mm 1 mps 709 mmHg 82%
    01:00 +3°C° 0 mm 1 mps 709 mmHg 83%
    02:00 +3°C° 0 mm 1 mps 709 mmHg 84%
    03:00 +3°C° 0 mm 1 mps 709 mmHg 84%
    04:00 +3°C° 0 mm 1 mps 709 mmHg 84%
    05:00 +3°C° 0 mm 1 mps 709 mmHg 84%
    06:00 +3°C° 0 mm 1 mps 709 mmHg 83%
    07:00 +3°C° 0 mm 1 mps 709 mmHg 82%
    08:00 +3°C° 0 mm 1 mps 709 mmHg 81%
    09:00 +5°C° 0 mm 1 mps 709 mmHg 74%
    10:00 +7°C° 0 mm 1 mps 709 mmHg 67%
    11:00 +8°C° 0 mm 0 mps 710 mmHg 60%
    12:00 +9°C° 0 mm 1 mps 709 mmHg 58%
    13:00 +10°C° 0 mm 1 mps 709 mmHg 56%
    14:00 +10°C° 0 mm 1 mps 709 mmHg 54%
    15:00 +9°C° 0 mm 1 mps 709 mmHg 59%
    16:00 +8°C° 0 mm 1 mps 709 mmHg 65%
    17:00 +7°C° 0 mm 1 mps 708 mmHg 70%
    18:00 +7°C° 0 mm 1 mps 709 mmHg 72%
    19:00 +6°C° 0 mm 1 mps 709 mmHg 74%
    20:00 +6°C° 0 mm 1 mps 709 mmHg 76%
    21:00 +5°C° 0 mm 1 mps 709 mmHg 78%
    22:00 +5°C° 0 mm 1 mps 709 mmHg 80%
    23:00 +4°C° 0 mm 1 mps 709 mmHg 83%

    22 December, Saturday

    Time Temperature Precipitation Wind Pressure Humidity
    00:00 +4°C° 0 mm 1 mps 709 mmHg 84%
    01:00 +2°C° 0 mm 0 mps 709 mmHg 85%
    02:00 +2°C° 0 mm 0 mps 709 mmHg 86%
    03:00 +2°C° 0 mm 0 mps 709 mmHg 86%
    04:00 +2°C° 0 mm 0 mps 709 mmHg 85%
    05:00 +1°C° 0 mm 0 mps 709 mmHg 85%
    06:00 +3°C° 0 mm 1 mps 709 mmHg 83%
    07:00 +3°C° 0 mm 1 mps 709 mmHg 81%
    08:00 +3°C° 0 mm 1 mps 709 mmHg 79%
    09:00 +5°C° 0 mm 1 mps 709 mmHg 70%
    10:00 +7°C° 0 mm 1 mps 710 mmHg 61%
    11:00 +9°C° 0 mm 1 mps 710 mmHg 52%
    12:00 +10°C° 0 mm 1 mps 709 mmHg 49%
    13:00 +10°C° 0 mm 1 mps 709 mmHg 45%
    14:00 +10°C° 0 mm 0 mps 708 mmHg 42%
    15:00 +9°C° 0 mm 0 mps 708 mmHg 48%
    16:00 +7°C° 0 mm 0 mps 708 mmHg 54%
    17:00 +6°C° 0 mm 0 mps 708 mmHg 60%
    18:00 +5°C° 0 mm 0 mps 708 mmHg 60%
    19:00 +5°C° 0 mm 0 mps 708 mmHg 61%
    20:00 +6°C° 0 mm 1 mps 708 mmHg 61%
    21:00 +6°C° 0 mm 1 mps 708 mmHg 60%
    22:00 +6°C° 0 mm 1 mps 708 mmHg 60%
    23:00 +6°C° 0 mm 1 mps 708 mmHg 59%

    23 December, Sunday

    Time Temperature Precipitation Wind Pressure Humidity
    00:00 +5°C° 0 mm 1 mps 708 mmHg 58%
    01:00 +5°C° 0 mm 1 mps 707 mmHg 58%
    02:00 +4°C° 0 mm 0 mps 707 mmHg 58%
    03:00 +4°C° 0 mm 0 mps 707 mmHg 57%
    04:00 +3°C° 0 mm 0 mps 707 mmHg 57%
    05:00 +3°C° 0 mm 0 mps 707 mmHg 56%
    06:00 +3°C° 0 mm 0 mps 707 mmHg 56%
    07:00 +3°C° 0 mm 0 mps 707 mmHg 56%
    08:00 +4°C° 0 mm 0 mps 707 mmHg 55%
    09:00 +7°C° 0 mm 1 mps 708 mmHg 49%
    10:00 +9°C° 0 mm 1 mps 708 mmHg 43%
    11:00 +11°C° 0 mm 1 mps 708 mmHg 37%
    12:00 +12°C° 0 mm 1 mps 708 mmHg 37%
    13:00 +12°C° 0 mm 1 mps 708 mmHg 36%
    14:00 +13°C° 0 mm 1 mps 707 mmHg 36%
    15:00 +11°C° 0 mm 1 mps 707 mmHg 42%
    16:00 +10°C° 0 mm 1 mps 707 mmHg 49%
    17:00 +8°C° 0 mm 1 mps 707 mmHg 55%
    18:00 +8°C° 0 mm 1 mps 707 mmHg 58%
    19:00 +6°C° 0 mm 0 mps 708 mmHg 60%
    20:00 +5°C° 0 mm 0 mps 708 mmHg 62%
    21:00 +5°C° 0 mm 0 mps 708 mmHg 63%
    22:00 +5°C° 0 mm 0 mps 708 mmHg 64%
    23:00 +5°C° 0 mm 0 mps 708 mmHg 65%
    Show more